Simultaneous Nadir Overpasses (SNOs) Predictions

Prediction of SNOs between METOP-A and NOAA-19 Satellite Orbit:

Table of predicted SNOs for the next 14.0 days since TLE Epoch: 12/19/2014
Index Date (METOP-A) Time (METOP-A) Lat,Lon (METOP-A) SZA (METOP-A ) Date (NOAA-19) Time (NOAA-19) Lat,Lon (NOAA-19) SZA (NOAA-19 ) Distance(km) Time Diff (sec)
1 12/21/2014 03:59:54 74.50, 115.98 97.87 12/21/2014 03:58:39 74.54, 115.94 97.92 4.75 75
2 12/21/2014 04:50:36 -74.49, -76.70 82.14 12/21/2014 04:49:43 -74.49, -76.69 82.14 0.78 53
3 12/21/2014 05:41:16 74.48, 90.59 97.85 12/21/2014 05:40:41 74.49, 90.58 97.86 1.11 35
4 12/21/2014 06:31:58 -74.47,-102.10 82.16 12/21/2014 06:31:46 -74.48,-102.18 82.14 2.73 12
5 12/21/2014 07:22:38 74.45, 65.19 97.83 12/21/2014 07:22:43 74.43, 65.21 97.81 2.54 5
6 12/21/2014 08:13:20 -74.45,-127.50 82.18 12/21/2014 08:13:48 -74.43,-127.55 82.20 2.68 28
7 12/21/2014 09:04:00 74.43, 39.79 97.81 12/21/2014 09:04:46 74.43, 39.72 97.80 2.31 46
8 12/21/2014 09:54:43 -74.38,-153.02 82.25 12/21/2014 09:55:50 -74.38,-152.92 82.25 3.17 67
9 12/21/2014 10:45:32 73.92, 13.16 97.32 12/21/2014 10:46:40 73.99, 15.36 97.35 68.13 68
10 12/31/2014 12:19:25 74.97, -7.64 97.99 12/31/2014 12:18:17 75.00, -10.12 98.08 71.47 68
11 12/31/2014 13:10:16 -74.53, 158.48 82.43 12/31/2014 13:09:10 -74.53, 158.50 82.44 0.97 66
12 12/31/2014 14:00:56 74.51, -34.24 97.55 12/31/2014 14:00:10 74.53, -34.26 97.57 1.87 46
13 12/31/2014 14:51:38 -74.51, 133.08 82.46 12/31/2014 14:51:13 -74.52, 132.99 82.44 2.92 25
14 12/31/2014 15:42:18 74.49, -59.64 97.52 12/31/2014 15:42:12 74.48, -59.63 97.51 1.48 6
15 12/31/2014 16:33:00 -74.49, 107.68 82.49 12/31/2014 16:33:15 -74.47, 107.62 82.50 2.44 15
16 12/31/2014 17:23:40 74.47, -85.04 97.50 12/31/2014 17:24:15 74.47, -85.14 97.50 3.01 35
17 12/31/2014 18:14:23 -74.41, 82.15 82.56 12/31/2014 18:15:17 -74.42, 82.25 82.56 2.94 54
18 12/31/2014 19:05:03 74.40,-110.56 97.42 12/31/2014 19:06:17 74.42,-110.51 97.44 3.44 74




NCC Satellite Simultaneous Nadir Overpasses (SNOs) Prediction Service
